Location: Landeleau
(48.2273°N, 3.7285°W)
Time: 03:37:38
(UTC+00:00)

SPOT 1/Viking Rocket - Pass Details

Date: 30 March 2020
Orbit: 776 x 795 km, 98.5° (Epoch: 04 June)

Event Time Altitude Azimuth Distance (km) Brightness Sun altitude
Exits shadow 21:41:26 78° 237° (WSW) 813 3.5 -27.3°
Maximum altitude 21:41:33 79° 256° (WSW) 812 3.5 -27.3°
Drops below altitude 10° 21:46:49 10° 344° (NNW) 2,373 6.8 -27.9°
Sets 21:49:10 0° 345° (NNW) 3,308 7.7 -28.2°
